EW7199 Weather Reports


time (UTC)temp
F
wind
direction
speed
knots
gust
knots
rain 1hr
in
rain 24hr
in
rain mn
in
humidity
%
barometer
mb
20260504150907 72 232 1.7 2.6 0.00 0.00 0.00 45 1017.0
20260504150407 72 210 1.7 2.6 0.00 0.00 0.00 43 1017.0
20260504140907 74 157 0.9 2.6 0.00 0.00 0.00 42 1017.0
20260504140408 73 182 0.9 2.6 0.00 0.00 0.00 42 1017.1
20260504130407 75 249 0.9 2.6 0.00 0.00 0.00 40 1017.3
20260504100407 68 241 1.7 2.6 0.00 0.00 0.00 53 1018.7
20260504081907 64 225 1.7 2.6 0.00 0.00 0.00 58 1019.3
20260504081408 63 232 1.7 2.6 0.00 0.00 0.00 60 1019.3
20260504080406 63 230 1.7 2.6 0.00 0.00 0.00 65 1019.4
20260504070406 61 246 1.7 2.6 0.00 0.00 0.00 65 1019.0
20260504050407 58 88 0.0 0.0 0.00 0.00 0.00 75 1018.5
20260504045906 58 88 0.0 0.0 0.00 0.00 0.00 75 1018.5
20260504045407 58 88 0.0 0.0 0.00 0.00 0.00 75 1018.5
20260504044906 58 85 0.0 0.0 0.00 0.00 0.00 74 1018.5
20260504043907 57 85 0.0 0.0 0.00 0.00 0.00 73 1018.4
20260504043407 57 85 0.9 1.7 0.00 0.00 0.00 73 1018.4
20260504042910 58 84 0.9 1.7 0.00 0.00 0.00 73 1018.3
20260504042406 58 279 0.9 1.7 0.00 0.00 0.00 75 1018.2
20260504041919 58 279 0.0 0.0 0.00 0.00 0.00 76 1018.2
20260504041407 58 279 0.0 0.0 0.00 0.00 0.00 77 1018.2
20260504040910 58 279 0.0 0.0 0.00 0.00 0.00 77 1018.1
20260504040406 58 279 0.0 0.9 0.00 0.00 0.00 77 1018.1
20260504035407 58 279 0.9 1.7 0.00 0.00 0.00 75 1018.2
20260504034909 58 279 1.7 2.6 0.00 0.00 0.00 75 1018.1
20260504034408 58 300 1.7 1.7 0.00 0.00 0.00 75 1018.1
20260504033906 58 300 0.0 0.0 0.00 0.00 0.00 75 1018.0
20260504033406 58 300 0.0 0.0 0.00 0.00 0.00 75 1018.0
20260504032907 58 300 0.0 0.0 0.00 0.00 0.00 75 1018.1
20260504032407 58 300 0.0 0.0 0.00 0.00 0.00 75 1018.0
20260504031407 58 300 0.0 0.0 0.00 0.00 0.00 75 1018.0
20260504030906 58 300 0.0 0.0 0.00 0.00 0.00 75 1018.1
20260504025907 58 300 0.0 0.0 0.00 0.00 0.00 74 1018.0
20260504025414 58 300 0.0 0.0 0.00 0.00 0.00 74 1018.0
20260504024923 58 300 0.0 0.0 0.00 0.00 0.00 74 1018.0
20260504024409 58 300 0.0 0.0 0.00 0.00 0.00 74 1018.0
20260504023914 59 300 0.0 0.9 0.00 0.00 0.00 73 1018.0
20260504023409 58 299 0.9 2.6 0.00 0.00 0.00 73 1018.0
20260504023014 59 48 0.0 0.9 0.00 0.00 0.00 70 1018.0
20260504022417 59 48 0.0 0.0 0.00 0.00 0.00 70 1018.0
20260504021416 59 48 0.0 0.9 0.00 0.00 0.00 69 1018.1
20260504020917 59 48 0.0 0.9 0.00 0.00 0.00 69 1018.0
20260504020417 59 48 0.0 0.0 0.00 0.00 0.00 69 1018.0
20260504014917 59 48 0.0 0.0 0.00 0.00 0.00 69 1018.0
20260504014417 59 48 0.0 0.0 0.00 0.00 0.00 69 1018.0
20260504013918 59 48 0.0 0.9 0.00 0.00 0.00 69 1018.0
20260504013418 59 48 0.0 0.9 0.00 0.00 0.00 69 1018.0
20260504012917 59 48 0.9 1.7 0.00 0.00 0.00 70 1018.0
20260504012416 59 49 0.9 1.7 0.00 0.00 0.00 70 1018.0
20260504011918 59 51 0.0 1.7 0.00 0.00 0.00 70 1018.0
20260504011418 59 52 0.9 1.7 0.00 0.00 0.00 70 1018.0
20260504005918 59 42 0.9 1.7 0.00 0.00 0.00 70 1018.1
20260504004917 59 47 1.7 2.6 0.00 0.00 0.00 70 1018.1
20260504004418 59 43 0.9 2.6 0.00 0.00 0.00 70 1018.1
20260504003918 59 44 1.7 2.6 0.00 0.00 0.00 70 1018.1
20260504003418 59 39 1.7 2.6 0.00 0.00 0.00 70 1018.1
20260504002917 59 39 0.9 1.7 0.00 0.00 0.00 70 1018.2
20260504002417 59 53 0.0 1.7 0.00 0.00 0.00 70 1018.1
20260504001418 59 48 1.7 2.6 0.00 0.00 0.00 70 1018.1
20260504000918 59 43 1.7 4.3 0.00 0.00 0.00 71 1018.1
20260504000417 59 66 0.9 2.6 0.00 0.00 0.00 71 1018.1
20260503235917 59 37 0.9 2.6 0.00 0.00 0.00 71 1018.1
20260503235417 59 53 0.9 2.6 0.00 0.00 0.00 71 1018.2
20260503234916 59 44 0.9 2.6 0.00 0.00 0.00 70 1018.2
20260503234416 59 41 1.7 2.6 0.00 0.00 0.00 70 1018.3
20260503233916 59 61 1.7 4.3 0.00 0.00 0.00 71 1018.3
20260503233417 59 59 1.7 2.6 0.00 0.00 0.00 71 1018.3
20260503232917 59 56 1.7 2.6 0.00 0.00 0.00 72 1018.3
20260503232416 59 45 1.7 2.6 0.00 0.00 0.00 72 1018.3
20260503231916 59 62 0.9 2.6 0.00 0.00 0.00 72 1018.3
20260503231417 59 65 1.7 2.6 0.00 0.00 0.00 72 1018.3
20260503230917 59 76 1.7 2.6 0.00 0.00 0.00 72 1018.3
20260503230417 59 74 0.9 2.6 0.00 0.00 0.00 71 1018.4
20260503225917 59 75 1.7 2.6 0.00 0.00 0.00 71 1018.4
20260503225416 59 67 1.7 2.6 0.00 0.00 0.00 71 1018.4
20260503224917 59 81 0.9 2.6 0.00 0.00 0.00 71 1018.4
20260503224419 59 72 0.9 2.6 0.00 0.00 0.00 71 1018.4
20260503223917 59 72 1.7 2.6 0.00 0.00 0.00 71 1018.4
20260503223416 59 79 0.9 2.6 0.00 0.00 0.00 71 1018.4
20260503222918 59 84 0.9 2.6 0.00 0.00 0.00 71 1018.4
20260503222416 60 78 0.9 2.6 0.00 0.00 0.00 71 1018.5
20260503221920 60 75 0.0 0.0 0.00 0.00 0.00 71 1018.5
20260503220917 60 81 1.7 2.6 0.00 0.00 0.00 71 1018.4
20260503220417 60 80 2.6 5.2 0.00 0.00 0.00 71 1018.4
20260503215917 61 88 1.7 2.6 0.00 0.00 0.00 71 1018.4
20260503214917 62 113 0.9 2.6 0.00 0.00 0.00 70 1018.4
20260503214417 63 120 0.9 2.6 0.00 0.00 0.00 70 1018.4
20260503213917 64 189 0.0 1.7 0.00 0.00 0.00 70 1018.3
20260503213417 64 258 0.9 1.7 0.00 0.00 0.00 70 1018.3
20260503212918 64 275 0.0 0.9 0.00 0.00 0.00 71 1018.3
20260503212417 64 278 0.9 1.7 0.00 0.00 0.00 71 1018.3
20260503211917 64 278 0.0 1.7 0.00 0.00 0.00 72 1018.3
20260503211417 64 278 0.9 1.7 0.00 0.00 0.00 73 1018.3
20260503210917 64 279 0.9 1.7 0.00 0.00 0.00 73 1018.3
20260503210417 64 260 0.9 2.6 0.00 0.00 0.00 73 1018.2
20260503205917 64 256 1.7 2.6 0.00 0.00 0.00 72 1018.3
20260503204418 64 278 0.9 1.7 0.00 0.00 0.00 73 1018.3
20260503203916 64 252 1.7 2.6 0.00 0.00 0.00 72 1018.2
20260503203417 64 299 1.7 2.6 0.00 0.00 0.00 70 1018.2
20260503202917 64 282 0.9 1.7 0.00 0.00 0.00 68 1018.2
20260503202418 64 212 0.9 2.6 0.00 0.00 0.00 68 1018.1
20260503201921 64 208 0.9 2.6 0.00 0.00 0.00 68 1018.1
20260503201417 64 215 1.7 2.6 0.00 0.00 0.00 68 1018.0
20260503200916 64 229 1.7 1.7 0.00 0.00 0.00 68 1018.1
20260503200417 64 228 1.7 2.6 0.00 0.00 0.00 67 1018.1
20260503195917 64 230 1.7 2.6 0.00 0.00 0.00 67 1018.0
20260503195417 64 225 1.7 2.6 0.00 0.00 0.00 68 1018.0
20260503194916 64 205 1.7 2.6 0.00 0.00 0.00 68 1018.0
20260503194418 64 227 1.7 2.6 0.00 0.00 0.00 68 1017.9
20260503193916 64 213 1.7 2.6 0.00 0.00 0.00 69 1018.0
20260503193417 64 213 1.7 2.6 0.00 0.00 0.00 69 1017.9
20260503192917 64 219 1.7 2.6 0.00 0.00 0.00 69 1017.9
20260503192417 64 232 1.7 2.6 0.00 0.00 0.00 69 1017.8
20260503191916 64 230 1.7 2.6 0.00 0.00 0.00 68 1017.9
20260503191417 64 221 1.7 2.6 0.00 0.00 0.00 67 1017.7
20260503185917 64 222 1.7 2.6 0.00 0.00 0.00 65 1017.7
20260503185417 65 221 1.7 2.6 0.00 0.00 0.00 66 1017.6
20260503184916 65 214 1.7 2.6 0.00 0.00 0.00 66 1017.6
20260503183918 65 210 0.9 2.6 0.00 0.00 0.00 67 1017.5
20260503183417 65 219 1.7 2.6 0.00 0.00 0.00 67 1017.5
20260503182916 65 215 2.6 5.2 0.00 0.00 0.00 67 1017.5
20260503182417 65 219 2.6 2.6 0.00 0.00 0.00 66 1017.4
20260503181916 66 227 1.7 2.6 0.00 0.00 0.00 63 1017.4
20260503180917 70 225 1.7 2.6 0.00 0.00 0.00 49 1017.2
20260503180416 71 216 0.9 2.6 0.00 0.00 0.00 35 1017.1
20260503175917 71 48 0.0 0.0 0.00 0.00 0.00 34 1016.9
20260503173917 71 58 0.9 2.6 0.00 0.00 0.00 34 1016.9
20260503173417 72 30 1.7 2.6 0.00 0.00 0.00 34 1016.9
20260503172917 72 50 0.9 2.6 0.00 0.00 0.00 34 1016.9
20260503172417 72 108 0.9 2.6 0.00 0.00 0.00 34 1016.9
20260503170917 73 65 0.9 2.6 0.00 0.00 0.00 33 1016.9
20260503170417 73 308 0.9 2.6 0.00 0.00 0.00 33 1016.8